sat.trackr.live / text

‹ back to catalog

STARLINK-34296

NORAD 64216 · 2025-117P

PAYLOAD ACTIVE UNKNOWN

§ Identity

Operator
Country
US
Launch date
2025-05-31
Launch site
AFWTR
Launch vehicle
Mass (kg)
RCS (m²)

Purposes: comms

External: N2YO · Heavens-Above · Gunter

§ Orbital elements

Epoch: 2026-09-20T11:22:41.536704Z

Period
93.85 min
Inclination
53.1570°
Eccentricity
0.0001739
Mean motion
15.34403606 rev/d
Perigee alt
461.5 km
Apogee alt
463.9 km
Semi-major
6,840.8 km
B*
7.2691e-4
RAAN
213.7400°
Arg perigee
74.7950°
Mean anomaly
285.3245°
Rev number
7,439

§ Raw data

STARLINK-342961 64216U 25117P   26263.47409186  .00024266  00000+0  72691-3 0  99902 64216  53.1570 213.7400 0001739  74.7950 285.3245 15.34403606 74395

JSON: /api/v1/satellites/64216 · /tle

For live sub-satellite position, see the globe view (requires WebGL).

§ Visibility from observer

Set your observer location to see the next 7 days of passes ≥ 10°. The values pass through the URL so the page stays shareable.

No JS? Fill the form by hand. The geolocation button needs JavaScript.